KN6RO-14 Weather Reports


Display with metric or nautical units.
time (UTC)temp
F
wind
direction
speed
MPH
gust
MPH
rain 1hr
in
rain 24hr
in
rain mn
in
humidity
%
barometer
mb
20260506032408 66 1 0.0 1.0 0.00 0.00 0.00 52 1013.0
20260506025408 66 16 0.0 1.0 0.00 0.00 0.00 52 1013.2
20260506022408 66 304 0.0 0.0 0.00 0.00 0.00 52 1012.8
20260506015408 66 303 0.0 1.0 0.00 0.00 0.00 51 1012.8
20260506012408 66 335 0.0 1.0 0.00 0.00 0.00 52 1012.5
20260506005408 66 8 0.0 1.0 0.00 0.00 0.00 52 1012.3
20260506002408 67 313 0.0 2.0 0.00 0.00 0.00 52 1012.3
20260505235408 68 86 0.0 0.0 0.00 0.00 0.00 51 1012.5
20260505232408 69 86 0.0 1.0 0.00 0.00 0.00 50 1012.5
20260505225408 70 86 0.0 1.0 0.00 0.00 0.00 47 1012.4
20260505222408 71 91 0.0 1.0 0.00 0.00 0.00 45 1012.8
20260505215408 71 6 0.0 1.0 0.00 0.00 0.00 44 1012.4
20260505212408 72 36 0.0 4.0 0.00 0.00 0.00 44 1012.5
20260505205408 72 132 0.0 3.0 0.00 0.00 0.00 44 1012.8
20260505202409 73 122 0.0 2.0 0.00 0.00 0.00 43 1012.7
20260505195409 73 121 1.0 2.0 0.00 0.00 0.00 40 1013.1
20260505192409 75 163 1.0 3.0 0.00 0.00 0.00 43 1013.3
20260505185409 75 68 1.0 2.0 0.00 0.00 0.00 43 1013.8
20260505182409 76 130 2.0 3.0 0.00 0.00 0.00 38 1013.9
20260505175409 77 89 1.0 3.0 0.00 0.00 0.00 41 1014.4
20260505172409 74 260 1.0 3.0 0.00 0.00 0.00 45 1014.8
20260505165409 76 218 1.0 4.0 0.00 0.00 0.00 43 1015.0
20260505162409 74 246 2.0 4.0 0.00 0.00 0.00 39 1015.2
20260505152409 73 331 1.0 3.0 0.00 0.00 0.00 49 1015.3
20260505122409 62 90 0.0 1.0 0.00 0.00 0.00 60 1014.8
20260505115409 62 41 0.0 1.0 0.00 0.00 0.00 54 1014.7
20260505112409 58 248 0.0 0.0 0.00 0.00 0.00 61 1013.9
20260505095410 57 56 0.0 1.0 0.00 0.00 0.00 57 1014.2
20260505092410 57 233 0.0 1.0 0.00 0.00 0.00 56 1014.2
20260505085410 58 256 0.0 1.0 0.00 0.00 0.00 55 1014.1
20260505082410 58 297 0.0 1.0 0.00 0.00 0.00 56 1014.3
20260505075410 57 250 0.0 1.0 0.00 0.00 0.00 59 1014.2
20260505072410 58 250 0.0 0.0 0.00 0.00 0.00 57 1014.3
20260505065410 59 253 0.0 0.0 0.00 0.00 0.00 55 1014.1
20260505062410 59 253 0.0 0.0 0.00 0.00 0.00 55 1014.3
20260505055410 59 293 0.0 0.0 0.00 0.00 0.00 55 1014.6
20260505052410 60 315 0.0 0.0 0.00 0.00 0.00 53 1014.7
20260505035410 61 312 0.0 1.0 0.00 0.00 0.00 50 1014.7